THOR ABLESTAR DEB, 20174

Orbit data source: Space-Track

THOR ABLESTAR DEB, 20174 is space debris in LEO originally from a launch on Thu, 29 Jun 1961 UTC launched from the Air Force Eastern Test Range (AFETR). Debris objects in space refer to the collection of defunct objects orbiting the Earth. Examples of debris include non-operational satellites, rocket bodies, and fragments generated from explosions, collisions, or faulty payload assembly.

Loading next visibility...
Identifier
20174, 1961-015MK
Orbit
LEO
Country
Flag of USUS
Related business
Manufacturer
Unknown
Mission
Spacecraft
Bus & Motor
Unknown
Mass
Unknown
Launch date (UTC)
1961-06-29 (65 years ago)
Launch vehicle
Unknown
Launch site
Air Force Eastern Test Range (AFETR)
Object type
Payload
Rocket body
Debris
Shape & HBR
Unknown shape, 0.1 m
Radar Cross Section
Small (<0.1 m²)

Expand to show TLE details & history
Last TLE update: 13 hours ago

TLE from 13 hours ago
0 THOR ABLESTAR DEB
1 20174U 61015MK  26124.68390558  .00000562  00000-0  72061-3 0  9998
2 20174  67.0626  17.7323 0481573 160.4821 201.5393 13.28790689676012
Epoch: 2026-05-04T16:24Z
TLE epoch observation values (Epoch: 2026-05-04T16:24:49.442Z)
Latitude
0.00002°
Longitude
-91.04328°
Altitude
1,492.891 km
Speed
6.956 km/s
True Right ascension
01h 10m 55s
True Declination
0° 00' 00"
Sunlit
Object was in daylight at epoch
Visualization orbit readout
Latitude
Unknown
Longitude
Unknown
Altitude
Unknown
Speed
Unknown
Apparent Right ascension
Unknown
Apparent Declination
Unknown
Sunlit
N/A
Visualization observer readout
Local Sidereal Time
13:16:24
Azimuth
Unknown
Elevation
Unknown
Doppler factor
Unknown
Orbital elements
Apogee altitude
1,512.257 km
Perigee altitude
787.213 km
Semi-major axis
7,527.872 km
Eccentricity
0.04816
Inclination
67.0626°
RAAN
17.7323°
Arg. of periapsis
160.4821°
True anomaly
199.62126°
Mean anomaly
201.5393°
Eccentric anomaly
200.56985°
Mean motion
3.32303 °/min
Orbital period
108.33 mins
BSTAR
0.00072061
Loading maneuver chart data...
Computing Atmospheric mass density...
Loading historical data...
Loading historical data...
Loading historical data...
Loading historical data...
Loading historical data...
Loading historical data...
Loading historical data...

Documentation

Showing up to 5 results
|